Regional Weather Roundup
Issued by NWS

Home | Current Version | Previous Version | Text Only | Print | Product List | Glossary Off
Versions: 1 2 3 4 5 6 7 8 9 10 11 12 13 14 15 16 17 18 19 20 21 22 23 24 25 26 27 28 29 30 31 32 33 34 35 36 37 38 39 40 41 42 43 44 45 46 47 48 49 50

000
ASUS43 KLSX 151707
RWRMO

WEATHER SUMMARY FOR MISSOURI
NATIONAL WEATHER SERVICE SPRINGFIELD MO
1200 PM CDT MON SEP 15 2014

NOTE: "FAIR" INDICATES FEW OR NO CLOUDS BELOW 12,000 FEET WITH NO
       SIGNIFICANT WEATHER AND/OR OBSTRUCTIONS TO VISIBILITY.
       CURRENT SKY AND/OR WEATHER CONDITIONS ARE NOT AVAILABLE FOR
       CHILLICOTHE AND FARMINGTON.

MOZ001>031-035>038-043-044-053-054-151800-
...NORTHERN AND WESTERN MISSOURI...

CITY           SKY/WX    TMP DP  RH WIND       PRES   REMARKS
KANSAS CTY INT CLOUDY    67  65  93 W10       30.10R FOG
KANSAS C DTWN  CLOUDY    71  65  81 W12       30.08R
LEE`S SUMMIT   CLOUDY    71  65  81 W5        30.09R
ST JOSEPH      CLOUDY    66  63  90 N10       30.11R
CHILLICOTHE      N/A     63  61  93 VRB5      30.10R
KIRKSVILLE     CLOUDY    61  59  93 W3        30.08S

$$
MOZ066>068-077>081-088>096-101>105-151800-
...SOUTHWEST MISSOURI...

CITY           SKY/WX    TMP DP  RH WIND       PRES   REMARKS
SPRINGFIELD    MOSUNNY   77  65  66 SW15      30.13F
JOPLIN         MOSUNNY   78  66  66 SW18G25   30.14S

$$
MOZ032>034-039>042-045>050-055>058-069>072-151800-
...CENTRAL MISSOURI...

CITY           SKY/WX    TMP DP  RH WIND       PRES   REMARKS
COLUMBIA       CLOUDY    73  65  75 SW14      30.07F
JEFFERSON CITY PTSUNNY   77  64  64 SW13G22   30.05F
ROLLA          SUNNY     74  64  71 SW13      30.08F
SEDALIA        CLOUDY    75  65  70 W14G20    30.08R
WHITEMAN AFB   CLOUDY    73  66  78 W7        30.07R
OSAGE BEACH    PTSUNNY   79  64  61 W15G21    30.09F

$$
MOZ051-052-059>065-151800-
...EAST CENTRAL MISSOURI...

CITY           SKY/WX    TMP DP  RH WIND       PRES   REMARKS
ST LOUIS INTL  PTSUNNY   74  61  63 SW15G22   30.06F
SPIRIT OF STL  PTSUNNY   72  62  71 SW8       30.05F
ST CHARLES     PTSUNNY   72  62  71 SW8       30.05F

$$
MOZ072>076-082>087-097>100-106>115-151800-
...SOUTH CENTRAL AND SOUTHEAST MISSOURI...

CITY           SKY/WX    TMP DP  RH WIND       PRES   REMARKS
CAPE GIRARDEAU CLOUDY    70  57  63 S8        30.14F
FARMINGTON     CLOUDY    64  61  88 S9        30.13F
POPLAR BLUFF   CLOUDY    69  56  62 S8        30.13F
WEST PLAINS    CLOUDY    69  62  78 SW8       30.17F

$$


USA.gov is the U.S. government's official web portal to all federal, state and local government web resources and services.